TimeCDT,TemperatureF,Dew PointF,Humidity,Sea Level PressureIn,VisibilityMPH,Wind Direction,Wind SpeedMPH,Gust SpeedMPH,PrecipitationIn,Events,Conditions,WindDirDegrees,DateUTC
12:52 AM,55.0,46.9,74,30.12,10.0,South,5.8,-,N/A,,Clear,180,2012-10-15 05:52:00
1:52 AM,55.9,46.9,72,30.11,10.0,South,4.6,-,N/A,,Clear,170,2012-10-15 06:52:00
2:52 AM,57.0,44.1,62,30.11,10.0,Calm,Calm,-,N/A,,Clear,0,2012-10-15 07:52:00
3:52 AM,52.0,46.9,83,30.10,10.0,South,4.6,-,N/A,,Clear,180,2012-10-15 08:52:00
4:52 AM,53.1,45.0,74,30.09,10.0,Calm,Calm,-,N/A,,Clear,0,2012-10-15 09:52:00
5:52 AM,55.0,44.1,67,30.08,10.0,SSW,4.6,-,N/A,,Clear,200,2012-10-15 10:52:00
7:52 AM,52.0,45.0,77,30.11,10.0,SSE,4.6,-,N/A,,Clear,160,2012-10-15 12:52:00
8:52 AM,55.9,48.0,75,30.12,10.0,South,4.6,-,N/A,,Clear,190,2012-10-15 13:52:00
9:52 AM,63.0,48.9,60,30.12,10.0,SSW,4.6,-,N/A,,Clear,200,2012-10-15 14:52:00
10:52 AM,71.1,48.9,45,30.11,10.0,South,4.6,-,N/A,,Clear,190,2012-10-15 15:52:00
11:52 AM,75.0,46.9,37,30.09,10.0,South,4.6,-,N/A,,Clear,170,2012-10-15 16:52:00
12:52 PM,78.1,45.0,31,30.06,10.0,SSW,5.8,-,N/A,,Clear,200,2012-10-15 17:52:00
1:52 PM,79.0,44.1,29,30.02,10.0,South,8.1,-,N/A,,Clear,180,2012-10-15 18:52:00
2:52 PM,81.0,45.0,28,30.00,10.0,South,12.7,-,N/A,,Clear,190,2012-10-15 19:52:00
3:52 PM,80.1,46.0,30,29.97,10.0,South,13.8,-,N/A,,Clear,180,2012-10-15 20:52:00
4:52 PM,79.0,46.0,31,29.96,10.0,South,8.1,-,N/A,,Clear,180,2012-10-15 21:52:00
5:52 PM,78.1,45.0,31,29.94,10.0,SSE,9.2,-,N/A,,Clear,160,2012-10-15 22:52:00
6:52 PM,73.0,46.9,39,29.95,10.0,SSE,6.9,-,N/A,,Clear,160,2012-10-15 23:52:00
7:52 PM,68.0,48.0,49,29.97,10.0,South,5.8,-,N/A,,Clear,170,2012-10-16 00:52:00
8:52 PM,66.9,46.9,49,29.98,10.0,South,9.2,-,N/A,,Clear,180,2012-10-16 01:52:00
9:52 PM,66.9,46.9,49,29.96,10.0,South,8.1,-,N/A,,Clear,170,2012-10-16 02:52:00
10:52 PM,64.9,46.0,50,29.95,10.0,South,5.8,-,N/A,,Clear,170,2012-10-16 03:52:00
11:52 PM,66.0,48.0,52,29.92,10.0,South,9.2,-,N/A,,Clear,170,2012-10-16 04:52:00